sat.trackr.live / text

‹ back to catalog

SONATE-2

NORAD 59112 · 2024-043Q

PAYLOAD ACTIVE UNKNOWN

§ Identity

Operator
Country
GER
Launch date
2024-03-04
Launch site
AFWTR
Launch vehicle
Mass (kg)
RCS (m²)

Purposes: comms

External: N2YO · Heavens-Above · Gunter

§ Orbital elements

Epoch: 2026-09-19T05:25:44.258880Z

Period
91.94 min
Inclination
97.5624°
Eccentricity
0.0005379
Mean motion
15.66288288 rev/d
Perigee alt
365.9 km
Apogee alt
373.2 km
Semi-major
6,747.7 km
B*
4.4592e-4
RAAN
58.9866°
Arg perigee
210.5709°
Mean anomaly
149.5238°
Rev number
14,257

§ Raw data

SONATE-21 59112U 24043Q   26262.22620670  .00046104  00000+0  44592-3 0  99952 59112  97.5624  58.9866 0005379 210.5709 149.5238 15.66288288142578

JSON: /api/v1/satellites/59112 · /tle

For live sub-satellite position, see the globe view (requires WebGL).

§ Visibility from observer

Set your observer location to see the next 7 days of passes ≥ 10°. The values pass through the URL so the page stays shareable.

No JS? Fill the form by hand. The geolocation button needs JavaScript.

§ Radio — SatNOGS DB

ModeDescriptionDownlinkUplink
QPSK Mode S - QPSK 2.048 Msps - CCSDS 131.0-B Convolutional code k=7, r=0.5, randomizer on 2.268 GHz
GMSK Mode U - GMSK9k6 - AX.25 G3RUH - Telemetry 437.025 MHz
CW Mode V - CW 145.840 MHz
SSTV Mode V - SSTV - Martin M1 SSTV 145.880 MHz
AFSK Mode V/V - APRS digipeater 145.825 MHz 145.825 MHz

5 transmitters · refreshed weekly from db.satnogs.org